STARLINK-32786 (62528 NORAD) Tracking and Keplerian Element Data

This shows tracking and keplerian element data for the satellite.

Feedback or suggestion? Click here.




ElementValue
Catalog62528
NameSTARLINK-32786
Epoch Orbit5335
Epoch Day354.18119667
Epoch Year2025
RAAN308.4782
Inclination43.0014
Eccentricity0.0001256
Argument of Perigee284.3543
Mean Anonmoly75.7169
Mean Motion15.275624
Decay Rate0.00016614
L11 62528U 25004T 25354.18119667 .00016614 00000+0 61221-3 0 9994
L22 62528 43.0014 308.4782 0001256 284.3543 75.7169 15.27562400 53355



Live tracking and technical data element details for STARLINK-32786 (NORAD 62528). STARLINK-32786 can be tracked NOW for your location showing map with azimuth and elevation plus other details from your city location.







IsCatalogInMostPopularTable: catalog: 62528, numindb: 92
Update: records affected: 1



GetName: 62528 STARLINK-32786

Hit Count: updated at: Tue, 17 Feb 2026 11:17:24 GMT